sat.trackr.live / text

‹ back to catalog

STARLINK-37433

NORAD 69841 · 2026-154Y

PAYLOAD ACTIVE UNKNOWN

§ Identity

Operator
Country
US
Launch date
2026-07-05
Launch site
AFETR
Launch vehicle
Mass (kg)
RCS (m²)

Purposes: comms

External: N2YO · Heavens-Above · Gunter

§ Orbital elements

Epoch: 2026-09-20T04:11:19.459392Z

Period
93.85 min
Inclination
53.1592°
Eccentricity
0.0003313
Mean motion
15.34416535 rev/d
Perigee alt
460.4 km
Apogee alt
464.9 km
Semi-major
6,840.8 km
B*
4.4835e-4
RAAN
333.5463°
Arg perigee
85.8347°
Mean anomaly
274.3034°
Rev number
1,318

§ Raw data

STARLINK-374331 69841U 26154Y   26263.17453078  .00014810  00000+0  44835-3 0  99902 69841  53.1592 333.5463 0003313  85.8347 274.3034 15.34416535 13180

JSON: /api/v1/satellites/69841 · /tle

For live sub-satellite position, see the globe view (requires WebGL).

§ Visibility from observer

Set your observer location to see the next 7 days of passes ≥ 10°. The values pass through the URL so the page stays shareable.

No JS? Fill the form by hand. The geolocation button needs JavaScript.